SCP
0 0 0 0 0 0 0 0 0 0 0 0 0 0 0 0 0 0 0 0 0 0 0 0 0 0 0 0 0 0 0 0
0 0 0 0 0 0 0 0 0 0 0 0 0 0 0 0 0 0 0 0 0 0 0 0 0 0 0 0 0 0 0 0
0 0 0 0 0 0 0 0 0 0 0 0 0 0 0 0 0 0 0 0 0 0 0 0 0 0 0 0 0 0 0 0
0 0 0 0 0 0 0 0 0 0 0 0 0 0 0 0 0 0 0 0 0 0 0 0 0 0 0 0 0 0 0 0
0 0 0 0 0 0 0 0 0 0 0 0 0 0 0 0 0 0 0 0 0 0 0 0 0 0 0 0 0 0 0 0
0 0 0 0 0 0 0 0 0 0 0 0 0 0 0 0 0 0 0 0 0 0 0 0 0 0 0 0 0 0 0 0
0 0 0 0 0 0 0 0 0 0 0 0 0 0 0 0 0 0 0 0 0 0 0 0 0 0 0 0 0 0 0 0
0 0 0 0 0 0 0 0 0 0 0 0 0 0 0 0 0 0 0 0 0 0 0 0 0 0 0 0 0 0 0 0
0 0 0 0 0 0 0 0 0 0 0 0 0 0 0 0 0 0 0 0 0 0 0 0 0 0 0 0 0 0 0 0
0 0 0 0 0 0 0 0 0 0 0 0 0 0 0 0 0 0 0 0 0 0 0 0 0 0 0 0 0 0 0 0
0 0 0 0 0 0 0 0 0 0 0 0 0 0 0 0 0 0 0 0 0 0 0 0 0 0 0 0 0 -0 -0 -0
0 0 0 0 0 0 0 0 0 0 0 0 0 0 0 0 0 0 0 0 0 0 0 0 0 0 0 0 0 0 -0 -0
0 0 0 0 0 0 -0 0 0 0 0 0 0 0 -0 0 0 0 0 0 0 0 0 0 0 0 0 0 0 0 -0 -0
0 0 0 0 0 0 -0 -0 -0 -0 0 0 0 0 0 0 0 0 0 0 0 0 0 0 0 0 -0 -0 -0 -0 -0 -0
0 0 0 0 0 -0 -0 -0 -0 -0 0 0 0 0 0 0 0 0 0 0 0 0 0 0 0 0 0 -0 0 0 0 0
0 0 0 0 -0 -0 -0 -0 -0 -0 0 -0 0 0 0 0 0 0 -0 0 0 0 0 0 0 0 -0 0 0 0 0 0
0 0 0 0 -0 -0 -0 -0 -0 -0 0 0 -0 0 -0 0 0 0 0 0 0 0 0 0 0 0 0 0 0 0 0 0
0 0 -0 -0 -0 -0 -0 -0 -0 0 0 0 0 -0 -0 -0 -0 -0 -0 0 0 0 0 0 -0 0 0 0 0 0 0 0
0 0 -0 -0 -0 -0 -0 -0 -0 0 0 0 0 0 -0 -0 -0 -0 -0 -0 0 0 -0 -0 -0 0 0 0 0 0 0 0
0 -0 -0 -0 -0 -0 -0 -0 -0 0 0 0 0 0 0 0 -0 -0 -0 -0 -0 -0 -0 -0 -0 -0 -0 0 0 0 0 0
Wind_Speed_500mb
23 20 18 16 14 14 13 15 16 19 23 24 26 32 37 40 45 48 50 51 52 52 54 56 56 57 60 63 68 74 77 79
15 13 13 14 16 18 20 22 25 27 30 32 34 36 40 42 44 47 49 49 50 52 52 54 55 58 59 60 63 71 76 79
10 11 13 16 17 19 22 24 27 31 34 37 39 41 42 44 45 45 49 52 55 53 55 57 59 63 59 59 63 63 63 69
10 14 18 20 23 26 28 31 33 35 36 39 40 41 41 42 45 47 48 53 56 54 53 56 59 62 62 70 77 80 77 74
13 18 20 23 25 27 31 33 34 35 36 36 36 37 37 40 43 46 47 53 56 58 61 62 71 73 69 71 72 73 72 79
19 21 22 24 27 29 31 33 33 33 34 32 32 34 37 40 42 46 52 54 54 58 62 63 66 66 63 67 66 67 74 80
22 24 28 31 31 31 33 34 32 31 30 29 30 33 36 41 46 50 52 50 49 51 56 62 59 59 62 56 61 66 63 63
25 29 30 29 28 31 33 31 29 27 27 29 29 34 38 40 41 43 43 46 50 52 58 57 56 67 62 55 57 61 59 56
28 28 28 28 30 28 28 27 25 27 26 29 33 34 36 35 42 47 50 53 57 60 68 64 62 57 55 51 42 49 55 56
29 29 29 29 25 25 26 26 21 23 29 32 34 35 33 39 42 47 50 54 55 70 55 55 52 52 65 40 41 51 48 57
27 27 28 25 26 25 24 20 23 27 29 31 34 35 34 32 41 53 53 43 47 57 62 61 55 51 52 56 44 51 45 58
28 28 27 28 26 23 22 24 25 27 29 30 33 28 34 32 40 46 48 44 47 49 56 57 55 55 53 48 48 42 37 17
28 29 28 30 25 23 23 23 25 26 28 30 32 27 27 33 45 48 44 37 39 48 51 51 55 58 42 27 22 21 19 6
27 28 29 27 26 24 26 26 24 24 26 28 28 28 27 32 45 46 37 38 37 46 43 42 33 24 35 25 13 10 21 22
28 31 31 30 28 27 31 30 26 23 24 25 26 24 26 30 40 41 52 44 46 52 44 43 35 41 33 17 13 7 13 13
37 39 37 37 33 35 35 35 34 25 19 19 22 24 23 27 32 34 36 43 49 57 57 51 46 45 27 22 28 25 21 15
41 43 41 43 40 40 39 37 36 32 22 21 23 24 20 25 31 30 35 38 46 49 60 63 63 40 25 22 24 17 15 7
39 40 40 42 42 41 40 37 32 44 28 25 23 23 21 23 25 28 28 38 42 43 41 56 63 64 45 29 15 8 11 7
31 32 37 42 44 41 41 36 39 40 40 29 29 25 24 22 22 25 28 29 35 43 41 35 43 40 49 42 31 31 22 4
30 30 40 43 45 42 43 37 39 35 47 46 40 35 36 29 25 22 26 28 27 31 34 33 33 39 36 40 38 35 33 25
Wind_Direction_500mb
110 103 90 79 58 43 28 12 5 348 337 327 320 311 308 305 300 299 295 290 288 286 280 278 280 279 278 275 272 271 271 270
91 77 64 33 19 3 358 351 347 335 326 322 317 314 308 306 303 299 298 295 288 284 284 285 283 281 278 277 275 274 271 270
56 31 14 360 351 344 342 334 332 326 321 317 312 311 310 308 302 295 291 290 289 287 283 279 276 274 275 276 271 269 271 272
2 351 345 339 337 334 328 326 322 318 315 311 311 308 305 296 296 298 294 291 285 284 285 285 283 278 275 269 265 271 271 270
333 330 329 327 325 321 317 312 313 313 309 306 303 301 299 299 299 297 295 290 293 293 291 290 289 291 286 279 275 274 274 270
324 323 319 315 311 311 309 309 309 308 306 303 303 307 305 302 303 300 299 299 299 299 296 293 291 291 293 290 286 285 280 274
322 318 315 313 313 309 307 310 309 307 307 308 310 306 308 310 305 303 303 304 300 299 297 292 291 291 293 296 292 289 283 280
319 313 314 311 308 308 309 308 309 305 301 297 309 311 306 305 303 305 303 300 299 301 305 297 290 298 308 299 294 293 289 283
320 318 314 309 312 311 307 303 297 291 300 311 301 301 302 306 315 326 312 307 313 304 305 298 291 290 310 301 292 292 288 280
325 322 316 317 318 311 302 297 300 320 307 305 308 311 310 327 322 314 318 306 297 311 314 306 305 295 302 303 292 288 287 284
329 324 321 318 312 309 309 320 322 307 315 314 315 318 325 320 316 314 329 319 312 308 318 320 311 305 300 299 291 294 286 279
335 329 323 321 321 321 317 310 311 313 314 316 324 335 339 321 321 331 335 330 326 325 319 316 318 315 310 308 307 307 309 291
343 339 335 332 336 335 329 322 318 314 312 322 331 331 321 325 338 360 355 346 336 326 326 324 316 317 339 318 297 278 281 223
349 348 342 346 346 343 328 325 318 314 317 323 326 329 322 329 340 3 17 12 7 357 345 350 8 347 339 353 344 349 49 98
7 359 5 5 356 354 348 347 339 327 319 318 325 338 327 329 344 352 356 5 13 12 16 2 7 353 339 303 305 82 111 82
17 17 15 11 10 5 0 358 351 345 333 321 323 328 327 327 348 346 351 5 359 18 21 16 10 353 14 37 88 119 103 124
20 14 12 10 20 8 6 359 1 1 351 340 331 339 336 338 344 331 349 359 3 10 11 15 20 28 36 75 111 82 74 67
22 10 12 10 14 10 4 6 9 7 3 2 340 337 349 349 343 343 343 346 353 355 360 11 12 18 41 89 62 30 39 81
24 14 16 13 12 12 12 21 32 3 13 11 8 357 349 352 353 348 345 346 344 352 358 15 10 9 16 40 36 59 22 356
23 20 18 15 14 17 16 28 38 5 12 23 17 9 9 5 1 354 355 355 350 348 347 355 10 26 14 16 25 34 15 16
Wind_Speed_850mb
23 20 18 16 14 14 13 15 16 19 23 24 26 32 37 40 45 48 50 51 52 52 54 56 56 57 60 63 68 74 77 79
15 13 13 14 16 18 20 22 25 27 30 32 34 36 40 42 44 47 49 49 50 52 52 54 55 58 59 60 63 71 76 79
10 11 13 16 17 19 22 24 27 31 34 37 39 41 42 44 45 45 49 52 55 53 55 57 59 63 59 59 63 63 63 69
10 14 18 20 23 26 28 31 33 35 36 39 40 41 41 42 45 47 48 53 56 54 53 56 59 62 62 70 77 80 77 74
13 18 20 23 25 27 31 33 34 35 36 36 36 37 37 40 43 46 47 53 56 58 61 62 71 73 69 71 72 73 72 79
19 21 22 24 27 29 31 33 33 33 34 32 32 34 37 40 42 46 52 54 54 58 62 63 66 66 63 67 66 67 74 80
22 24 28 31 31 31 33 34 32 31 30 29 30 33 36 41 46 50 52 50 49 51 56 62 59 59 62 56 61 66 63 63
25 29 30 29 28 31 33 31 29 27 27 29 29 34 38 40 41 43 43 46 50 52 58 57 56 67 62 55 57 61 59 56
28 28 28 28 30 28 28 27 25 27 26 29 33 34 36 35 42 47 50 53 57 60 68 64 62 57 55 51 42 49 55 56
29 29 29 29 25 25 26 26 21 23 29 32 34 35 33 39 42 47 50 54 55 70 55 55 52 52 65 40 41 51 48 57
27 27 28 25 26 25 24 20 23 27 29 31 34 35 34 32 41 53 53 43 47 57 62 61 55 51 52 56 44 51 45 58
28 28 27 28 26 23 22 24 25 27 29 30 33 28 34 32 40 46 48 44 47 49 56 57 55 55 53 48 48 42 37 17
28 29 28 30 25 23 23 23 25 26 28 30 32 27 27 33 45 48 44 37 39 48 51 51 55 58 42 27 22 21 19 6
27 28 29 27 26 24 26 26 24 24 26 28 28 28 27 32 45 46 37 38 37 46 43 42 33 24 35 25 13 10 21 22
28 31 31 30 28 27 31 30 26 23 24 25 26 24 26 30 40 41 52 44 46 52 44 43 35 41 33 17 13 7 13 13
37 39 37 37 33 35 35 35 34 25 19 19 22 24 23 27 32 34 36 43 49 57 57 51 46 45 27 22 28 25 21 15
41 43 41 43 40 40 39 37 36 32 22 21 23 24 20 25 31 30 35 38 46 49 60 63 63 40 25 22 24 17 15 7
39 40 40 42 42 41 40 37 32 44 28 25 23 23 21 23 25 28 28 38 42 43 41 56 63 64 45 29 15 8 11 7
31 32 37 42 44 41 41 36 39 40 40 29 29 25 24 22 22 25 28 29 35 43 41 35 43 40 49 42 31 31 22 4
30 30 40 43 45 42 43 37 39 35 47 46 40 35 36 29 25 22 26 28 27 31 34 33 33 39 36 40 38 35 33 25
Wind_Direction_850mb
110 103 90 79 58 43 28 12 5 348 337 327 320 311 308 305 300 299 295 290 288 286 280 278 280 279 278 275 272 271 271 270
91 77 64 33 19 3 358 351 347 335 326 322 317 314 308 306 303 299 298 295 288 284 284 285 283 281 278 277 275 274 271 270
56 31 14 360 351 344 342 334 332 326 321 317 312 311 310 308 302 295 291 290 289 287 283 279 276 274 275 276 271 269 271 272
2 351 345 339 337 334 328 326 322 318 315 311 311 308 305 296 296 298 294 291 285 284 285 285 283 278 275 269 265 271 271 270
333 330 329 327 325 321 317 312 313 313 309 306 303 301 299 299 299 297 295 290 293 293 291 290 289 291 286 279 275 274 274 270
324 323 319 315 311 311 309 309 309 308 306 303 303 307 305 302 303 300 299 299 299 299 296 293 291 291 293 290 286 285 280 274
322 318 315 313 313 309 307 310 309 307 307 308 310 306 308 310 305 303 303 304 300 299 297 292 291 291 293 296 292 289 283 280
319 313 314 311 308 308 309 308 309 305 301 297 309 311 306 305 303 305 303 300 299 301 305 297 290 298 308 299 294 293 289 283
320 318 314 309 312 311 307 303 297 291 300 311 301 301 302 306 315 326 312 307 313 304 305 298 291 290 310 301 292 292 288 280
325 322 316 317 318 311 302 297 300 320 307 305 308 311 310 327 322 314 318 306 297 311 314 306 305 295 302 303 292 288 287 284
329 324 321 318 312 309 309 320 322 307 315 314 315 318 325 320 316 314 329 319 312 308 318 320 311 305 300 299 291 294 286 279
335 329 323 321 321 321 317 310 311 313 314 316 324 335 339 321 321 331 335 330 326 325 319 316 318 315 310 308 307 307 309 291
343 339 335 332 336 335 329 322 318 314 312 322 331 331 321 325 338 360 355 346 336 326 326 324 316 317 339 318 297 278 281 223
349 348 342 346 346 343 328 325 318 314 317 323 326 329 322 329 340 3 17 12 7 357 345 350 8 347 339 353 344 349 49 98
7 359 5 5 356 354 348 347 339 327 319 318 325 338 327 329 344 352 356 5 13 12 16 2 7 353 339 303 305 82 111 82
17 17 15 11 10 5 0 358 351 345 333 321 323 328 327 327 348 346 351 5 359 18 21 16 10 353 14 37 88 119 103 124
20 14 12 10 20 8 6 359 1 1 351 340 331 339 336 338 344 331 349 359 3 10 11 15 20 28 36 75 111 82 74 67
22 10 12 10 14 10 4 6 9 7 3 2 340 337 349 349 343 343 343 346 353 355 360 11 12 18 41 89 62 30 39 81
24 14 16 13 12 12 12 21 32 3 13 11 8 357 349 352 353 348 345 346 344 352 358 15 10 9 16 40 36 59 22 356
23 20 18 15 14 17 16 28 38 5 12 23 17 9 9 5 1 354 355 355 350 348 347 355 10 26 14 16 25 34 15 16